Wetbulb
30.43 30.37 30.46 30.55 30.20 30.19 29.37 28.10 28.93 29.05 29.34 29.16 28.37 28.98 27.18 26.18 25.46 25.62 27.02 28.17 28.41 28.26 29.10 29.50 29.59 29.44 29.16 29.18 30.38 29.68 30.29 31.86
29.81 30.72 30.77 30.03 30.06 29.77 28.63 28.33 28.14 27.83 28.16 28.73 27.80 27.59 27.47 26.57 26.48 25.24 25.15 25.29 25.41 26.07 26.73 27.26 27.85 27.35 27.65 28.05 28.24 28.09 28.88 29.50
28.21 28.15 27.76 27.33 26.89 27.04 27.97 27.82 27.96 28.20 27.94 27.77 27.33 26.15 25.41 25.26 25.58 26.22 25.80 25.99 24.76 25.22 25.27 25.57 25.57 25.67 26.36 26.32 27.21 27.19 26.78 27.71
27.59 26.82 26.80 26.76 26.86 26.68 26.85 27.18 27.61 26.97 25.96 25.71 25.24 24.77 24.75 25.08 25.46 25.54 25.20 24.89 24.45 24.34 24.13 24.89 24.81 24.66 24.76 24.87 25.61 26.05 26.79 26.97
26.99 27.61 27.11 27.07 26.26 25.49 26.09 26.63 26.57 26.25 25.58 24.72 24.33 24.51 24.52 24.82 24.69 24.29 24.37 24.54 24.08 23.63 23.97 24.21 24.20 24.35 24.45 24.78 24.41 25.34 26.50 27.22
25.60 25.64 26.04 25.95 25.63 25.99 26.07 26.13 26.00 25.27 25.09 24.66 24.86 24.65 24.15 23.69 23.33 23.72 23.69 24.05 23.91 23.47 23.02 22.90 22.99 23.55 23.31 24.52 24.36 24.57 25.38 26.39
26.77 26.11 25.98 26.15 26.05 26.54 25.87 26.08 25.76 23.87 22.61 23.98 23.13 23.29 23.42 23.05 23.31 22.91 22.63 22.03 21.92 21.59 21.54 21.36 22.89 26.04 27.12 26.35 23.77 23.94 23.64 23.56
26.55 26.05 26.27 25.94 26.52 25.46 25.35 24.74 21.52 20.11 18.72 19.51 20.52 20.23 20.52 19.94 19.49 18.83 17.99 18.36 18.06 18.49 19.12 19.20 20.32 24.66 25.75 26.17 23.98 22.87 22.16 22.08
25.48 25.35 26.00 25.74 25.15 24.58 23.86 21.84 21.31 18.91 16.63 17.26 18.35 16.08 16.12 15.20 14.27 14.24 14.56 14.25 14.31 14.62 15.19 15.46 17.10 21.43 22.14 22.13 20.45 20.23 20.83 21.16
25.97 25.05 24.59 23.49 22.97 21.94 20.66 20.67 19.16 18.33 18.22 16.41 14.03 11.59 12.09 9.70 10.26 10.86 10.28 10.07 9.70 11.61 11.09 10.53 11.16 16.52 18.01 18.36 15.80 16.12 16.41 18.18
25.55 25.06 22.36 21.22 21.27 19.08 18.01 15.98 15.71 16.53 14.98 13.61 12.19 6.26 7.72 8.30 7.21 7.96 7.43 8.43 8.90 8.29 8.40 8.09 7.07 12.97 15.50 16.60 13.97 12.14 13.63 15.36
23.94 23.27 21.29 19.56 17.55 15.81 15.10 13.38 13.86 12.62 11.27 9.57 9.11 6.69 5.83 5.56 6.05 5.01 4.34 5.54 3.70 4.46 5.23 5.67 7.10 7.85 14.28 16.50 14.40 12.99 12.03 12.39
22.13 20.29 19.09 16.79 14.81 12.86 11.86 12.59 9.50 7.61 5.98 4.63 2.06 3.01 5.36 1.64 2.46 2.39 1.90 1.26 1.46 2.04 3.37 5.75 7.37 10.61 13.01 15.72 17.27 17.68 13.33 12.12
18.51 16.84 15.77 12.96 11.58 9.92 9.83 8.42 6.60 -0.43 -3.55 -3.01 -0.03 2.60 3.00 0.52 1.14 0.91 0.99 0.49 0.92 2.07 1.88 3.06 6.41 7.56 13.28 15.69 16.88 17.31 14.01 13.79
12.49 10.47 9.94 10.95 11.75 8.79 5.75 5.20 -5.81 -10.58 -3.85 -0.09 -0.34 0.55 0.45 2.81 2.90 0.60 -0.40 0.16 1.25 1.30 2.05 4.49 7.69 10.16 12.07 12.44 12.59 15.54 15.66 16.08
10.74 9.71 9.53 9.15 7.78 4.32 3.70 -2.21 -4.86 -4.46 -0.44 -0.16 0.14 -2.35 0.90 1.94 1.92 2.57 4.71 5.98 6.26 8.54 9.67 9.27 8.88 10.94 16.76 18.08 16.47 16.97 18.71 19.51
8.23 7.46 6.99 5.28 4.31 2.14 0.21 -5.81 -8.39 -3.03 -0.27 0.29 0.79 1.06 1.62 0.89 0.65 8.05 10.67 12.86 14.75 16.07 14.57 12.98 16.67 18.30 19.61 20.33 20.66 21.41 22.27 18.84
6.48 6.01 4.11 2.38 2.13 -0.87 -5.72 -10.19 -11.92 -9.36 -2.42 -0.39 0.47 -0.12 -0.32 -0.10 -1.00 -1.79 3.40 10.83 11.81 13.17 14.52 15.47 16.51 16.79 17.69 19.00 19.61 19.39 17.94 12.52
1.44 2.70 -2.19 -2.65 -2.46 -2.73 -6.52 -12.58 -13.70 -10.90 -3.43 -2.87 -1.81 -1.42 -0.67 -1.05 -0.72 -0.39 -1.45 -1.37 0.88 7.64 10.88 12.67 13.69 15.28 16.85 15.69 13.24 3.23 6.18 6.12
-4.78 -1.21 -2.92 -3.60 -3.36 -7.91 -11.78 -10.61 -13.28 -8.33 -5.77 -6.18 -3.13 -0.56 -0.34 -1.20 -1.29 -0.87 -0.48 -0.21 0.01 1.60 5.14 5.94 11.30 13.30 11.47 11.26 2.47 1.74 2.13 3.95
MSLP
1025.44 1025.78 1026.06 1025.92 1025.96 1026.00 1026.20 1026.42 1026.46 1026.25 1026.12 1026.66 1026.62 1026.23 1026.54 1026.91 1026.64 1026.49 1026.21 1025.64 1025.84 1025.19 1024.68 1024.42 1023.80 1023.17 1022.78 1022.46 1022.01 1021.73 1021.47 1021.24
1025.44 1025.65 1025.77 1025.90 1026.19 1026.38 1026.41 1026.29 1026.30 1026.17 1026.35 1026.45 1026.37 1026.36 1026.57 1026.69 1026.83 1026.58 1026.30 1026.15 1025.84 1025.47 1025.05 1024.69 1024.30 1023.48 1023.04 1022.71 1022.19 1021.97 1021.38 1020.84
1025.30 1025.65 1026.00 1026.25 1026.34 1026.42 1026.43 1026.47 1026.40 1026.49 1026.60 1026.75 1026.75 1026.83 1026.95 1026.88 1026.76 1026.31 1026.17 1025.76 1025.44 1024.81 1024.74 1024.46 1024.03 1023.49 1022.97 1022.84 1022.44 1022.14 1021.65 1020.80
1025.41 1025.78 1026.01 1026.13 1026.22 1026.30 1026.33 1026.40 1026.43 1026.50 1026.62 1026.77 1026.93 1027.11 1027.22 1027.16 1026.93 1026.47 1026.12 1025.64 1025.28 1025.00 1024.89 1024.48 1023.67 1023.30 1022.94 1022.57 1022.26 1021.88 1021.55 1020.94
1025.35 1025.48 1025.64 1025.78 1025.85 1025.91 1026.08 1026.12 1026.21 1026.33 1026.56 1026.77 1026.93 1027.03 1027.00 1026.87 1026.68 1026.46 1026.12 1025.85 1025.44 1024.97 1024.69 1024.29 1023.63 1023.31 1022.91 1022.34 1021.93 1021.58 1020.82 1020.41
1024.86 1025.14 1025.40 1025.59 1025.55 1025.64 1025.83 1025.94 1026.06 1026.33 1026.56 1026.71 1026.76 1026.79 1026.75 1026.69 1026.51 1026.27 1025.97 1025.56 1025.13 1024.73 1024.26 1023.78 1023.41 1022.83 1022.33 1021.96 1021.45 1020.93 1020.00 1019.31
1024.28 1024.61 1024.85 1025.03 1025.11 1025.31 1025.55 1025.79 1026.04 1026.42 1026.82 1026.76 1026.66 1026.62 1026.65 1026.61 1026.50 1026.20 1025.73 1025.29 1024.82 1024.35 1023.92 1023.20 1022.62 1022.22 1021.96 1021.67 1021.10 1020.45 1019.66 1018.73
1023.71 1023.87 1024.21 1024.53 1024.72 1025.18 1025.62 1025.95 1026.41 1026.88 1026.92 1026.94 1026.96 1027.07 1027.10 1026.97 1026.65 1026.22 1025.69 1025.21 1024.67 1024.10 1023.67 1022.76 1022.03 1021.96 1021.48 1021.07 1020.41 1019.60 1018.83 1018.17
1023.47 1023.75 1023.93 1024.27 1024.76 1025.32 1025.82 1026.35 1026.81 1027.15 1027.34 1027.20 1027.35 1027.48 1027.35 1027.13 1026.87 1026.39 1025.94 1025.38 1024.72 1024.04 1023.63 1022.78 1021.92 1021.75 1021.19 1020.68 1019.81 1018.87 1018.09 1017.57
1023.03 1023.38 1023.92 1024.52 1025.10 1025.60 1026.11 1026.51 1026.80 1027.15 1027.47 1027.69 1027.84 1027.82 1027.67 1027.48 1027.04 1026.60 1026.07 1025.45 1024.86 1024.26 1023.52 1022.92 1022.10 1021.83 1021.02 1020.17 1019.26 1018.19 1017.26 1016.82
1022.75 1023.42 1024.19 1024.89 1025.32 1025.83 1026.35 1026.72 1027.03 1027.34 1027.60 1027.82 1027.88 1027.85 1027.73 1027.45 1027.06 1026.58 1026.19 1025.38 1024.78 1024.00 1023.64 1022.92 1022.04 1021.48 1020.53 1019.55 1018.56 1017.40 1016.59 1015.89
1022.78 1023.41 1024.20 1025.04 1025.60 1026.18 1026.69 1027.03 1027.31 1027.58 1027.78 1027.94 1027.95 1027.80 1027.57 1027.15 1026.78 1026.27 1025.77 1025.17 1024.63 1023.87 1023.28 1022.61 1021.86 1020.91 1019.88 1018.84 1017.77 1016.93 1015.87 1015.06
1023.03 1023.79 1024.57 1025.18 1025.53 1026.13 1026.61 1026.93 1027.31 1027.65 1027.95 1028.03 1027.94 1027.74 1027.38 1026.98 1026.42 1025.99 1025.53 1024.88 1024.13 1023.34 1022.44 1021.67 1020.85 1020.02 1018.96 1017.95 1016.92 1015.96 1014.93 1014.16
1023.12 1024.00 1024.72 1025.23 1025.75 1026.34 1026.67 1027.04 1027.38 1027.78 1028.05 1027.88 1027.61 1027.37 1027.05 1026.65 1025.99 1025.58 1024.99 1024.33 1023.55 1022.66 1021.56 1020.44 1019.53 1018.64 1017.62 1016.67 1015.73 1014.87 1013.84 1012.93
1023.45 1024.35 1025.04 1025.49 1025.94 1026.41 1026.79 1027.13 1027.54 1028.13 1027.76 1027.31 1027.15 1026.82 1026.36 1026.11 1025.52 1025.00 1024.19 1023.57 1022.72 1021.49 1020.29 1018.99 1017.88 1016.86 1016.04 1015.13 1013.99 1013.04 1012.14 1011.20
1023.46 1024.25 1024.96 1025.57 1026.05 1026.44 1026.82 1027.23 1027.83 1027.80 1027.34 1026.89 1026.70 1026.32 1025.81 1025.51 1024.85 1024.20 1023.28 1022.65 1021.10 1019.78 1018.70 1017.40 1016.28 1015.51 1014.34 1013.14 1012.17 1011.22 1010.13 1008.88
1023.69 1024.40 1025.06 1025.49 1025.94 1026.40 1026.83 1027.15 1027.70 1027.54 1027.02 1026.66 1026.36 1025.74 1025.36 1024.87 1024.09 1023.10 1022.23 1021.26 1020.13 1018.88 1017.69 1016.56 1015.43 1014.17 1012.96 1011.87 1010.86 1009.77 1008.67 1007.43
1023.91 1024.62 1025.22 1025.65 1026.04 1026.39 1026.65 1026.89 1027.24 1027.12 1026.62 1026.32 1025.90 1025.38 1024.97 1024.45 1023.90 1022.81 1020.79 1020.32 1019.62 1018.51 1017.29 1016.18 1014.85 1013.75 1012.57 1011.28 1010.11 1009.11 1008.43 1007.74
1024.31 1024.83 1025.30 1025.64 1025.88 1026.20 1026.40 1026.57 1026.68 1026.55 1026.21 1025.88 1025.49 1025.02 1024.58 1024.09 1023.48 1022.69 1021.80 1020.65 1018.57 1017.77 1017.07 1015.90 1014.84 1013.54 1012.12 1011.43 1010.52 1009.96 1009.08 1008.49
1024.80 1025.21 1025.48 1025.66 1025.62 1025.80 1025.96 1026.20 1026.24 1026.24 1025.87 1025.43 1024.97 1024.52 1024.18 1023.71 1023.14 1022.35 1021.47 1020.64 1019.54 1017.85 1016.63 1015.78 1014.69 1013.44 1012.84 1012.08 1011.75 1010.73 1009.62 1008.68
Wind_Speed
5 6 4 5 5 6 6 6 4 6 6 4 4 5 4 4 6 6 6 5 7 7 8 10 10 10 8 6 6 6 5 5
6 6 6 5 4 4 4 5 5 6 5 6 6 6 6 5 5 4 4 4 4 6 6 7 8 7 8 10 9 7 8 6
7 6 6 6 5 4 3 3 3 3 3 4 4 6 6 6 7 7 8 7 7 9 9 9 8 7 6 9 8 10 12 11
6 7 7 6 6 5 5 5 4 3 2 1 2 3 4 6 6 7 7 9 9 8 9 11 11 12 12 9 10 9 10 10
6 7 7 6 7 6 6 5 5 5 4 3 4 4 5 5 6 6 6 8 9 9 10 11 12 12 13 12 12 13 11 11
8 7 7 7 7 6 6 6 5 4 2 3 3 4 4 5 6 6 7 7 8 10 10 10 10 9 11 12 12 14 16 16
8 8 9 8 7 6 5 3 0 2 3 4 5 7 7 7 9 10 11 12 12 13 13 14 10 20 24 21 14 15 16 16
8 8 7 7 6 4 4 3 4 3 3 5 5 5 6 8 11 13 14 14 15 15 15 17 17 25 27 28 15 16 16 17
5 5 6 4 5 6 5 3 3 2 3 4 5 5 8 10 11 12 12 14 14 15 15 17 15 28 30 30 19 17 18 17
7 5 5 6 6 6 4 3 3 2 2 2 3 6 8 9 11 11 13 13 14 14 16 16 16 26 29 26 16 17 19 18
7 5 7 5 5 4 3 2 0 2 4 5 5 3 8 10 11 10 11 14 12 15 14 17 17 23 27 24 12 15 14 16
7 8 7 6 5 5 4 3 2 2 3 4 6 7 9 10 9 11 12 13 13 14 13 14 15 16 26 26 14 12 13 13
8 8 6 5 4 4 2 2 2 1 3 5 5 6 8 9 10 10 11 12 12 13 12 10 13 20 23 27 28 25 16 15
7 7 5 5 4 3 2 0 1 2 4 6 7 7 8 8 11 9 9 8 10 10 11 11 11 12 26 29 30 29 20 14
8 6 5 4 4 2 2 1 1 4 6 5 5 7 5 6 8 8 8 8 10 11 12 12 11 11 10 12 14 23 21 25
7 6 6 5 3 2 2 1 3 5 5 5 5 5 7 7 9 8 10 12 12 11 12 12 12 12 24 23 15 14 18 22
5 5 5 4 2 2 3 3 3 4 4 4 6 5 6 7 9 18 21 25 26 27 21 12 25 31 32 32 32 33 33 17
5 5 4 2 3 3 4 3 4 5 5 5 6 5 7 7 8 10 16 25 22 21 24 27 26 29 30 31 32 30 26 11
5 3 3 3 4 4 3 3 4 4 7 5 5 5 6 7 8 8 9 12 16 16 21 23 26 28 29 27 22 12 11 9
2 2 2 3 6 3 3 4 4 4 3 4 4 5 7 7 8 8 8 9 10 12 15 16 25 24 22 23 8 10 10 10
Wind_Direction
135 123 123 108 95 80 78 81 72 67 63 65 59 58 48 13 14 4 342 353 337 340 345 341 342 347 351 340 331 329 309 296
162 152 138 125 125 125 96 73 53 48 40 29 21 21 13 7 349 348 329 331 324 323 316 314 318 331 337 331 326 322 310 304
161 156 157 169 170 169 169 148 128 110 72 32 10 1 350 342 333 338 330 326 329 335 328 324 320 314 309 306 307 310 311 307
165 178 185 186 184 193 203 208 201 186 188 225 288 298 304 302 306 312 314 312 314 315 311 310 315 316 313 303 294 282 274 283
192 202 199 196 195 201 207 201 202 196 207 237 265 274 281 287 288 284 281 283 287 288 292 292 299 295 295 296 296 295 289 278
202 203 203 205 214 215 212 198 198 208 243 321 312 282 281 288 282 283 278 282 277 285 283 282 278 284 295 294 295 294 294 292
214 207 209 214 219 220 231 233 50 37 8 344 351 355 343 337 333 325 318 314 309 302 299 293 285 293 300 300 295 293 290 287
209 208 214 222 218 192 136 95 70 41 5 358 356 352 347 334 325 319 314 312 307 305 305 300 298 305 303 303 297 291 284 283
212 209 214 166 122 121 110 103 90 48 360 10 15 345 328 321 316 312 309 308 306 304 304 298 300 309 309 307 299 291 283 279
213 195 153 136 128 120 109 94 56 20 61 51 355 317 316 308 306 306 305 302 300 298 302 302 303 308 305 305 298 289 287 285
195 142 133 140 123 117 118 89 336 54 354 338 321 294 303 299 300 297 294 294 298 298 297 296 297 301 301 301 291 287 287 286
163 167 151 133 137 136 151 184 118 42 335 315 304 301 292 289 292 294 293 294 294 293 293 290 287 288 294 296 292 290 288 285
158 154 143 137 126 138 167 107 49 340 283 282 279 283 290 283 287 287 287 288 292 292 291 287 284 282 286 292 292 290 289 287
155 143 133 127 117 158 179 9 270 278 271 269 271 273 272 279 287 291 285 290 292 291 290 286 282 275 281 284 286 286 280 271
141 154 169 167 147 182 229 217 242 271 277 275 267 275 272 275 284 284 287 290 286 284 282 280 280 282 281 273 271 272 274 271
163 162 167 162 177 205 238 188 263 261 274 281 270 273 289 273 282 282 281 281 284 288 292 297 298 292 293 301 297 286 280 283
155 153 165 166 213 225 234 201 233 275 278 280 286 290 291 291 292 292 301 302 301 304 306 301 304 307 309 312 309 304 301 292
168 153 158 173 250 240 243 197 225 237 274 280 287 288 291 295 295 301 311 308 309 313 318 316 317 322 317 315 318 321 318 314
136 181 179 212 250 238 243 230 246 252 264 271 270 280 287 289 291 296 302 307 314 321 323 328 326 324 329 333 342 324 324 313
133 247 227 261 267 246 236 231 241 260 258 252 269 279 286 292 289 292 299 300 300 312 324 319 321 337 340 340 328 319 316 315